Flag for South Africa Weather past 2 weeks in Johannesburg, South Africa

Now
41 °F

Quite cool.


Feels Like: 38 °F
Forecast: 37 / 62 °F
Wind: 5 mph from Southwest

Location: Lanseria Civ / Mil

Current Time: Aug 3, 2015 at 12:38:42 AM

Latest Report: Aug 3, 2015 at 12:00 AM


Visibility: N/A

Pressure: 30.48 "Hg (24.57 "Hg at 1754m altitude)

Humidity: 49%

Dew point: 23 °F

Location of JohannesburgLocation

Historic Weather in Johannesburg — Graph

°F

Johannesburg temperature yesterday

Maximum temperature yesterday: 66 °F (at 3:00 PM)
Minimum temperature yesterday: 34 °F (at 5:00 AM)
Average temperature yesterday: 50 °F

Past Weeks' High & Low Weather Summary

 TemperatureHumidityPressure
High73 °F (Jul 20, 2:00 PM)100% (Jul 25, 12:00 AM)30.57 "Hg (Jul 25, 12:00 AM)
Low32 °F (Aug 1, 6:00 AM)7% (Jul 30, 4:00 PM)30.07 "Hg (Jul 24, 3:00 PM)
Average53 °F44%30.30 "Hg
* Reported Jul 18 11:00 PM — Aug 2 11:00 PM, Johannesburg, Weather by CustomWeather, © 2015

Note: Actual official high and low records may vary slightly from our data, if they occured in-between our weather recording intervals... More about our weather records

Advertising

Johannesburg weather history for previous 24 hours

 ConditionsComfort  
Time TempWeatherWind HumidityBarometerVisibility
11:00 PM
Sun, Aug 2
45 °FQuite cool.No wind39%30.48 "HgN/A
10:00 PM46 °FClear.No wind34%30.48 "Hg10 mi
9:00 PM54 °FClear.5 mph26%30.48 "Hg10 mi
8:00 PM54 °FClear.2 mph24%30.48 "Hg10 mi
7:00 PM55 °FClear.6 mph24%30.45 "Hg10 mi
6:00 PM57 °FClear.7 mph21%30.42 "Hg10 mi
5:00 PM64 °FPassing clouds.6 mph15%30.42 "HgN/A
4:00 PM66 °FSunny.5 mph14%30.42 "Hg10 mi
3:00 PM66 °FSunny.6 mph14%30.45 "Hg10 mi
2:00 PM64 °FPassing clouds.7 mph14%30.45 "HgN/A
1:00 PM63 °FSunny.6 mph15%30.48 "Hg10 mi
12:00 PM61 °FSunny.6 mph17%30.51 "Hg10 mi
11:45 AM61 °FPassing clouds.5 mph19%30.51 "HgN/A
11:00 AM57 °FPassing clouds.5 mph23%30.54 "HgN/A
10:00 AM52 °FSunny.3 mph32%30.57 "Hg10 mi
9:00 AM45 °FPassing clouds.3 mph31%30.57 "HgN/A
8:00 AM39 °FSunny.No wind45%30.54 "Hg10 mi
7:00 AM34 °FSunny.2 mph51%30.51 "Hg10 mi
6:00 AM34 °FSunny.No wind56%30.51 "Hg10 mi
5:00 AM34 °FChilly.2 mph51%30.48 "HgN/A
4:00 AM36 °FChilly.5 mph48%30.48 "HgN/A
3:00 AM36 °FChilly.3 mph52%30.48 "HgN/A
2:00 AM41 °FQuite cool.2 mph39%30.48 "HgN/A
1:00 AM41 °FQuite cool.2 mph39%30.51 "HgN/A
12:00 AM43 °FQuite cool.6 mph36%30.51 "HgN/A
Weather by CustomWeather, © 2015

See weather overviewHow to use our weather pages